Weather History for KSZT - March, 2014

Change the Weather History Date:

Thursday, March 6, 2014

  Actual Average Record
Temperature  
Mean Temperature 40 °F -  
Max Temperature 46 °F 44 °F 59 °F (2005)
Min Temperature 35 °F 27 °F -2 °F (1943)
Degree Days  
Heating Degree Days 24    
Moisture  
Dew Point 38 °F    
Average Humidity 88    
Maximum Humidity 100    
Minimum Humidity 62    
Precipitation  
Precipitation 0.00 in - - ()
Sea Level Pressure  
Sea Level Pressure 29.71 in    
Wind  
Wind Speed 4 mph (SW)    
Max Wind Speed 10 mph    
Max Gust Speed -    
Visibility 9 miles    
Events Rain    
Averages and records for this station are not official NWS values.
T = Trace of Precipitation, MM = Missing Value Source: NWS Daily Summary

Daily Weather History Graph

Daily Weather History Graph

Search for Another Location

Airport or City:

Trip Planner

Search our weather history database for the weather conditions in past years. The results will help you decide how hot, cold, wet, or windy it might be!

Date:

Astronomy

Mar. 06, 2014 Rise Set
Actual Time 6:17 AM PST 5:38 PM PST
Civil Twilight 5:46 AM PST 6:09 PM PST
Nautical Twilight 5:10 AM PST 6:45 PM PST
Astronomical Twilight 4:33 AM PST 7:22 PM PST
Moon 9:01 AM PST No Moon Set
Length of Visible Light 12h 23m
Length of Day
11h 20m
Waxing Crescent, 33% of the Moon is Illuminated
Mar 6
Waxing Crescent
Mar 8
First Quarter
Mar 16
Full
Mar 23
Last Quarter
Mar 30
New

Hourly Weather History & Observations

Time (PST) Temp. Windchill Dew Point Humidity Pressure Visibility Wind Dir Wind Speed Gust Speed Precip Events Conditions
12:15 AM 39.2 °F 37.0 °F 39.2 °F 100% 29.55 in 4.0 mi North 3.5 mph - N/A Rain Heavy Rain
12:35 AM 39.2 °F 33.6 °F 39.2 °F 100% 29.54 in 7.0 mi North 8.1 mph - N/A Rain Rain
12:55 AM 39.2 °F 37.0 °F 39.2 °F 100% 29.54 in 5.0 mi North 3.5 mph - N/A Rain Rain
1:15 AM 37.4 °F 32.8 °F 37.4 °F 100% 29.53 in 2.5 mi ENE 5.8 mph - N/A Rain Light Rain
1:35 AM 37.4 °F - 37.4 °F 100% 29.55 in 10.0 mi Calm Calm - N/A   Overcast
1:55 AM 37.4 °F 34.9 °F 37.4 °F 100% 29.56 in 4.0 mi West 3.5 mph - N/A Rain Light Rain
2:15 AM 35.6 °F - 35.6 °F 100% 29.55 in 0.8 mi Calm Calm - N/A Rain Light Rain
2:35 AM 35.6 °F - 35.6 °F 100% 29.56 in 0.8 mi Calm Calm - N/A Rain Light Rain
2:55 AM 39.2 °F 35.0 °F 39.2 °F 100% 29.56 in 10.0 mi SSW 5.8 mph - N/A   Overcast
3:15 AM 41.0 °F 39.0 °F 41.0 °F 100% 29.57 in 10.0 mi SW 3.5 mph - N/A   Overcast
3:35 AM 41.0 °F 39.0 °F 41.0 °F 100% 29.57 in 10.0 mi South 3.5 mph - N/A   Overcast
3:55 AM 42.8 °F 39.3 °F 42.8 °F 100% 29.57 in 10.0 mi SSW 5.8 mph - N/A   Overcast
4:15 AM 42.8 °F 38.6 °F 42.8 °F 100% 29.58 in 10.0 mi SW 6.9 mph - N/A   Overcast
4:35 AM 44.6 °F 39.2 °F 41.0 °F 87% 29.58 in 10.0 mi SSW 10.4 mph - N/A   Overcast
4:55 AM 44.6 °F 40.7 °F 39.2 °F 81% 29.59 in 10.0 mi SW 6.9 mph - N/A   Overcast
5:15 AM 44.6 °F 39.2 °F 37.4 °F 76% 29.60 in 10.0 mi SW 10.4 mph - N/A   Overcast
5:35 AM 44.6 °F 42.2 °F 37.4 °F 76% 29.61 in 10.0 mi SW 4.6 mph - N/A   Overcast
5:55 AM 44.6 °F 41.4 °F 37.4 °F 76% 29.62 in 10.0 mi SSW 5.8 mph - N/A   Overcast
6:15 AM 42.8 °F 41.1 °F 37.4 °F 81% 29.63 in 10.0 mi SSW 3.5 mph - N/A   Overcast
6:35 AM 42.8 °F 41.1 °F 37.4 °F 81% 29.64 in 10.0 mi SSW 3.5 mph - N/A   Overcast
6:55 AM 41.0 °F 38.0 °F 39.2 °F 93% 29.65 in 10.0 mi West 4.6 mph - N/A   Overcast
7:15 AM 41.0 °F 39.0 °F 41.0 °F 100% 29.66 in 10.0 mi SW 3.5 mph - N/A   Overcast
7:35 AM 42.8 °F 40.1 °F 37.4 °F 81% 29.66 in 10.0 mi SSW 4.6 mph - N/A   Overcast
7:55 AM 42.8 °F 40.1 °F 37.4 °F 81% 29.67 in 10.0 mi South 4.6 mph - N/A   Overcast
8:15 AM 42.8 °F 38.6 °F 37.4 °F 81% 29.68 in 10.0 mi SSW 6.9 mph - N/A   Overcast
8:35 AM 44.6 °F 40.2 °F 35.6 °F 71% 29.69 in 10.0 mi SW 8.1 mph - N/A   Overcast
8:55 AM 44.6 °F 40.2 °F 35.6 °F 71% 29.69 in 10.0 mi SW 8.1 mph - N/A   Overcast
9:15 AM 44.6 °F 40.2 °F 35.6 °F 71% 29.70 in 10.0 mi SW 8.1 mph - N/A   Overcast
9:35 AM 44.6 °F 40.2 °F 35.6 °F 71% 29.70 in 10.0 mi SW 8.1 mph - N/A   Overcast
9:55 AM 44.6 °F 41.4 °F 35.6 °F 71% 29.70 in 10.0 mi SW 5.8 mph - N/A   Light Drizzle
10:15 AM 44.6 °F 41.4 °F 35.6 °F 71% 29.71 in 10.0 mi South 5.8 mph - N/A   Overcast
10:35 AM 44.6 °F 43.1 °F 35.6 °F 71% 29.71 in 10.0 mi South 3.5 mph - N/A   Overcast
10:55 AM 46.4 °F 44.3 °F 35.6 °F 66% 29.71 in 10.0 mi SSW 4.6 mph - N/A   Overcast
11:15 AM 46.4 °F 45.2 °F 33.8 °F 62% 29.71 in 10.0 mi SW 3.5 mph - N/A   Overcast
11:35 AM 46.4 °F - 33.8 °F 62% 29.71 in 10.0 mi Calm Calm - N/A   Overcast
11:55 AM 46.4 °F - 35.6 °F 66% 29.71 in 10.0 mi Calm Calm - N/A   Overcast
12:15 PM 46.4 °F - 35.6 °F 66% 29.71 in 10.0 mi Calm Calm - N/A Rain Light Rain
12:35 PM 46.4 °F - 35.6 °F 66% 29.70 in 10.0 mi Calm Calm - N/A   Drizzle
12:55 PM 46.4 °F 44.3 °F 35.6 °F 66% 29.71 in 10.0 mi West 4.6 mph - N/A   Drizzle
1:15 PM 44.6 °F 42.2 °F 35.6 °F 71% 29.70 in 10.0 mi South 4.6 mph - N/A   Overcast
1:35 PM 42.8 °F 41.1 °F 41.0 °F 93% 29.71 in 5.0 mi West 3.5 mph - N/A Rain Light Rain
1:55 PM 42.8 °F 41.1 °F 41.0 °F 93% 29.70 in 10.0 mi WSW 3.5 mph - N/A   Drizzle
2:15 PM 44.6 °F 42.2 °F 37.4 °F 76% 29.71 in 10.0 mi WSW 4.6 mph - N/A Rain Rain
2:30 PM 44.6 °F 41.4 °F 39.2 °F 81% 29.71 in 10.0 mi WSW 5.8 mph - N/A Rain Rain
2:55 PM 44.6 °F 42.2 °F 39.2 °F 81% 29.73 in 10.0 mi SW 4.6 mph - N/A Rain Light Rain
3:15 PM 42.8 °F 38.0 °F 39.2 °F 87% 29.74 in 10.0 mi SW 8.1 mph - N/A Rain Rain
3:35 PM 42.8 °F 40.1 °F 37.4 °F 81% 29.73 in 10.0 mi SSW 4.6 mph - N/A   Overcast
3:55 PM 44.6 °F 43.1 °F 37.4 °F 76% 29.74 in 10.0 mi South 3.5 mph - N/A   Overcast
4:15 PM 42.8 °F 41.1 °F 37.4 °F 81% 29.74 in 10.0 mi South 3.5 mph - N/A   Overcast
4:35 PM 44.6 °F 43.1 °F 37.4 °F 76% 29.74 in 10.0 mi SSW 3.5 mph - N/A   Overcast
4:55 PM 41.0 °F - 41.0 °F 100% 29.74 in 10.0 mi Calm Calm - N/A   Light Drizzle
5:15 PM 37.4 °F - 37.4 °F 100% 29.75 in 10.0 mi Calm Calm - N/A Rain Light Rain
5:35 PM 37.4 °F - 37.4 °F 100% 29.76 in 10.0 mi Calm Calm - N/A   Drizzle
5:55 PM 37.4 °F 32.8 °F 37.4 °F 100% 29.78 in 10.0 mi SSE 5.8 mph - N/A Rain Light Rain
6:15 PM 42.8 °F 37.5 °F 37.4 °F 81% 29.78 in 10.0 mi SSW 9.2 mph - N/A   Light Drizzle
6:35 PM 37.4 °F - 37.4 °F 100% 29.79 in 10.0 mi Calm Calm - N/A   Light Drizzle
6:55 PM 35.6 °F - 35.6 °F 100% 29.79 in 10.0 mi Calm Calm - N/A Rain Light Rain
7:10 PM 35.6 °F - 35.6 °F 100% 29.80 in 7.0 mi Calm Calm - N/A Rain Light Rain
7:35 PM 35.6 °F 32.8 °F 35.6 °F 100% 29.81 in 2.0 mi WSW 3.5 mph - N/A Rain Rain
7:55 PM 37.4 °F - 37.4 °F 100% 29.82 in 2.0 mi Calm Calm - N/A   Heavy Drizzle
8:15 PM 39.2 °F - 39.2 °F 100% 29.82 in 5.0 mi Calm Calm - N/A Rain Rain
8:35 PM 37.4 °F 34.9 °F 37.4 °F 100% 29.83 in 1.0 mi SSE 3.5 mph - N/A Rain Rain
8:55 PM 35.6 °F - 35.6 °F 100% 29.83 in 1.8 mi Calm Calm - N/A Rain Rain
9:15 PM 37.4 °F 33.8 °F 37.4 °F 100% 29.85 in 5.0 mi South 4.6 mph - N/A   Drizzle
9:35 PM 39.2 °F 35.9 °F 39.2 °F 100% 29.85 in 10.0 mi SSW 4.6 mph - N/A   Drizzle
9:55 PM 39.2 °F 35.0 °F 39.2 °F 100% 29.87 in 10.0 mi SSW 5.8 mph - N/A Rain Rain
10:15 PM 39.2 °F 35.9 °F 39.2 °F 100% 29.87 in 10.0 mi SSW 4.6 mph - N/A Rain Light Rain
10:35 PM 39.2 °F 34.2 °F 39.2 °F 100% 29.88 in 7.0 mi SSW 6.9 mph - N/A Rain Light Rain
10:55 PM 37.4 °F 33.8 °F 37.4 °F 100% 29.89 in 10.0 mi South 4.6 mph - N/A Rain Rain
11:15 PM 37.4 °F 33.8 °F 37.4 °F 100% 29.90 in 10.0 mi SSW 4.6 mph - N/A Rain Rain
11:35 PM 37.4 °F 32.8 °F 37.4 °F 100% 29.90 in 10.0 mi South 5.8 mph - N/A Rain Light Rain
11:55 PM 37.4 °F 33.8 °F 37.4 °F 100% 29.91 in 10.0 mi SSW 4.6 mph - N/A Rain Light Rain